J Percy Priest Observed Data For Previous 48 Hours

Caption
Day and Hour Reservoir Elevation (behind dam)* Tailwater Elevation (below dam)* Average Hourly Discharge*
9/20/2017 1 AM CDT 490.68 388.48 130
9/20/2017 2 AM CDT 490.68 388.28 130
9/20/2017 3 AM CDT 490.68 388.24 130
9/20/2017 4 AM CDT 490.68 388.24 130
9/20/2017 5 AM CDT 490.68 388.22 130
9/20/2017 6 AM CDT 490.68 388.22 130
9/20/2017 7 AM CDT 490.68 388.22 130
9/20/2017 8 AM CDT 490.68 388.21 130
9/20/2017 9 AM CDT 490.68 388.21 130
9/20/2017 10 AM CDT 490.68 388.22 130
9/20/2017 11 AM CDT 490.67 388.23 130
9/20/2017 12 PM CDT 490.67 388.22 130
9/20/2017 1 PM CDT 490.68 388.23 130
9/20/2017 2 PM CDT 490.68 388.26 130
9/20/2017 3 PM CDT 490.68 388.21 130
9/20/2017 4 PM CDT 490.68 388.24 130
9/20/2017 5 PM CDT 490.68 388.28 130
9/20/2017 6 PM CDT 490.67 388.64 130
9/20/2017 7 PM CDT 490.68 388.84 130
9/20/2017 8 PM CDT 490.68 389.14 130
9/20/2017 9 PM CDT 490.68 389.28 130
9/20/2017 10 PM CDT 490.68 389.24 130
9/20/2017 11 PM CDT 490.68 388.94 130
9/21/2017 12 AM CDT 490.68 388.66 130
9/21/2017 1 AM CDT 490.68 388.35 130
9/21/2017 2 AM CDT 490.68 388.25 130
9/21/2017 3 AM CDT 490.69 388.22 130
9/21/2017 4 AM CDT 490.69 388.20 130
9/21/2017 5 AM CDT 490.69 388.22 130
9/21/2017 6 AM CDT 490.69 388.22 130
9/21/2017 7 AM CDT 490.69 388.21 130
9/21/2017 8 AM CDT 490.69 388.21 130
9/21/2017 9 AM CDT 490.69 388.20 130
9/21/2017 10 AM CDT 490.68 390.27 500
9/21/2017 11 AM CDT 490.68 390.27 630
9/21/2017 12 PM CDT 490.67 390.57 630
9/21/2017 1 PM CDT 490.65 390.62 630
9/21/2017 2 PM CDT 490.66 390.64 630
9/21/2017 3 PM CDT 490.65 390.68 630
9/21/2017 4 PM CDT 490.65 390.72 630
9/21/2017 5 PM CDT 490.65 390.75 630
9/21/2017 6 PM CDT 490.65 390.78 630
9/21/2017 7 PM CDT 490.64 390.94 130
9/21/2017 8 PM CDT 490.64 390.98 130
9/21/2017 9 PM CDT 490.64 391.00 130
9/21/2017 10 PM CDT 490.62 391.05 130
9/21/2017 11 PM CDT 490.62 391.03 130
9/22/2017 12 AM CDT 490.62 390.94 130

Elevations are in feet above sea level. Discharges are in cubic feet per second and are reported at the end of the hour.